User: anonymous   Login
Location: NJAA Observatory
(40.6819°N, 74.8979°W)
Time: 22:42:20
(UTC-04:00)
Language:

Landsat 5 - Orbit

View from above orbital plane
View from above orbital plane
View from above satellite
View from above satellite

Ground track
Ground track

The orbit data is extracted from the following two-line orbital elements,

1 14780U 84021A   17087.87559619 +.00000448 +00000-0 +47366-4 0  9994
2 14780 098.0311 198.3193 0092398 074.0941 287.0436 14.91436661288362
Epoch (UTC): 28 March 2017 21:00:51
Eccentricity: 0.0092398
inclination: 98.0311°
perigee height: 529 km
apogee height: 658 km
right ascension of ascending node: 198.3193°
argument of perigee: 74.0941°
revolutions per day: 14.91436661
mean anomaly at epoch: 287.0436°
orbit number at epoch: 28836

The dashed part of the orbit path shows where the satellite is in the earth's shadow,  

DLR